LOG82HT EGPB-EGPH

Flight info

Callsign LOG82HT
Flight time N/A
Altitude 18000
Route WAFIL DCT PETOX DCT ADN P600 PTH
Aircraft AT76/M-SDFGIRY/S

Departure

Time 2026-04-24 16:40
Airport Sumburgh Airport (EGPB)

Arrival

Time N/A
Airport Edinburgh Airport (EGPH)
Time Latitude Longitude Altitude Speed Heading
2026-04-24 16:31 59.87697 -1.28769 40 ft 0 kts 117°
2026-04-24 16:37 59.87695 -1.28768 40 ft 0 kts 140°
2026-04-24 16:37 59.87666 -1.28795 40 ft 9 kts 216°
2026-04-24 16:38 59.87623 -1.28882 40 ft 9 kts 232°
2026-04-24 16:38 59.87572 -1.28914 40 ft 10 kts 154°
2026-04-24 16:38 59.87492 -1.28805 40 ft 15 kts 151°
2026-04-24 16:38 59.87423 -1.28748 40 ft 0 kts 160°
2026-04-24 16:39 59.87399 -1.28733 40 ft 8 kts 171°
2026-04-24 16:39 59.87356 -1.28806 40 ft 6 kts 264°
2026-04-24 16:39 59.87370 -1.28842 40 ft 0 kts 322°
2026-04-24 16:39 59.87510 -1.29050 39 ft 58 kts 322°
2026-04-24 16:40 59.87988 -1.29762 41 ft 111 kts 325°
2026-04-24 16:40 59.88667 -1.30631 383 ft 117 kts 330°
2026-04-24 16:40 59.89390 -1.31425 672 ft 123 kts 329°
2026-04-24 16:40 59.90155 -1.32276 1005 ft 127 kts 330°
2026-04-24 16:41 59.90920 -1.33300 1197 ft 145 kts 313°
2026-04-24 16:41 59.91288 -1.35185 1554 ft 153 kts 264°
2026-04-24 16:41 59.90668 -1.36964 1829 ft 168 kts 210°
2026-04-24 16:41 59.89535 -1.37202 2295 ft 168 kts 163°
2026-04-24 16:42 59.88445 -1.36411 2463 ft 178 kts 167°
2026-04-24 16:42 59.87233 -1.35804 2743 ft 180 kts 180°
2026-04-24 16:42 59.85991 -1.36110 3093 ft 181 kts 192°
2026-04-24 16:42 59.84742 -1.36541 3482 ft 182 kts 193°
2026-04-24 16:43 59.83485 -1.36947 3843 ft 184 kts 192°
2026-04-24 16:43 59.82217 -1.37329 4220 ft 185 kts 192°
2026-04-24 16:43 59.80936 -1.37670 4599 ft 186 kts 191°
2026-04-24 16:43 59.79640 -1.37972 4963 ft 188 kts 190°
2026-04-24 16:44 59.78336 -1.38246 5318 ft 189 kts 190°
2026-04-24 16:44 59.77024 -1.38501 5691 ft 190 kts 190°
2026-04-24 16:44 59.75706 -1.38745 6052 ft 191 kts 189°
2026-04-24 16:44 59.74385 -1.38992 6412 ft 191 kts 190°
2026-04-24 16:45 59.73054 -1.39255 6761 ft 192 kts 191°
2026-04-24 16:45 59.71722 -1.39528 7099 ft 192 kts 191°
2026-04-24 16:45 59.70389 -1.39805 7425 ft 193 kts 191°
2026-04-24 16:45 59.69054 -1.40080 7753 ft 193 kts 191°
2026-04-24 16:46 59.67714 -1.40355 8075 ft 194 kts 191°
2026-04-24 16:46 59.66374 -1.40630 8407 ft 194 kts 192°
2026-04-24 16:46 59.65048 -1.40908 8729 ft 194 kts 192°
2026-04-24 16:46 59.63702 -1.41190 9051 ft 195 kts 192°
2026-04-24 16:47 59.62353 -1.41468 9365 ft 195 kts 192°
2026-04-24 16:47 59.61003 -1.41746 9678 ft 195 kts 192°
2026-04-24 16:47 59.59649 -1.42023 9984 ft 196 kts 192°
2026-04-24 16:47 59.58292 -1.42300 10275 ft 196 kts 192°
2026-04-24 16:48 59.56930 -1.42579 10546 ft 197 kts 192°
2026-04-24 16:48 59.55564 -1.42859 10811 ft 198 kts 192°
2026-04-24 16:48 59.54194 -1.43140 11069 ft 199 kts 192°
2026-04-24 16:48 59.52813 -1.43422 11325 ft 199 kts 192°
2026-04-24 16:49 59.51432 -1.43706 11585 ft 200 kts 193°
2026-04-24 16:49 59.50044 -1.43991 11825 ft 201 kts 193°
2026-04-24 16:49 59.48648 -1.44280 12088 ft 202 kts 192°
2026-04-24 16:49 59.47249 -1.44571 12339 ft 203 kts 192°
2026-04-24 16:50 59.46318 -1.44759 12501 ft 203 kts 192°
2026-04-24 16:50 59.44429 -1.45144 12830 ft 204 kts 192°
2026-04-24 16:50 59.43011 -1.45433 13073 ft 205 kts 192°
2026-04-24 16:50 59.41587 -1.45724 13314 ft 206 kts 192°
2026-04-24 16:51 59.40157 -1.46016 13548 ft 207 kts 192°
2026-04-24 16:51 59.38721 -1.46309 13786 ft 208 kts 192°
2026-04-24 16:51 59.37280 -1.46602 14022 ft 209 kts 192°
2026-04-24 16:51 59.35835 -1.46897 14230 ft 210 kts 192°
2026-04-24 16:52 59.34387 -1.47193 14434 ft 210 kts 193°
2026-04-24 16:52 59.32932 -1.47488 14625 ft 210 kts 193°
2026-04-24 16:52 59.31475 -1.47785 14816 ft 211 kts 192°
2026-04-24 16:52 59.30014 -1.48086 14992 ft 211 kts 193°
2026-04-24 16:53 59.28549 -1.48383 15162 ft 212 kts 193°
2026-04-24 16:53 59.27082 -1.48678 15337 ft 212 kts 193°
2026-04-24 16:53 59.25607 -1.48978 15504 ft 213 kts 193°
2026-04-24 16:53 59.24151 -1.49270 15673 ft 213 kts 193°
2026-04-24 16:54 59.22674 -1.49570 15855 ft 214 kts 193°
2026-04-24 16:54 59.21192 -1.49867 16034 ft 214 kts 193°
2026-04-24 16:54 59.19708 -1.50168 16203 ft 215 kts 193°
2026-04-24 16:54 59.18219 -1.50467 16369 ft 215 kts 193°
2026-04-24 16:55 59.16727 -1.50767 16531 ft 216 kts 193°
2026-04-24 16:55 59.15233 -1.51067 16693 ft 216 kts 193°
2026-04-24 16:55 59.13731 -1.51368 16850 ft 217 kts 193°
2026-04-24 16:55 59.12232 -1.51669 16995 ft 217 kts 193°
2026-04-24 16:56 59.10725 -1.51971 17142 ft 218 kts 193°
2026-04-24 16:56 59.09218 -1.52275 17284 ft 218 kts 193°
2026-04-24 16:56 59.07707 -1.52575 17424 ft 219 kts 193°
2026-04-24 16:56 59.06193 -1.52879 17556 ft 219 kts 193°
2026-04-24 16:57 59.04675 -1.53184 17681 ft 219 kts 193°
2026-04-24 16:57 59.03154 -1.53487 17837 ft 220 kts 193°
2026-04-24 16:57 59.01631 -1.53790 17996 ft 220 kts 193°
2026-04-24 16:57 59.00107 -1.54094 18142 ft 220 kts 193°
2026-04-24 16:58 58.98569 -1.54401 18227 ft 224 kts 193°
2026-04-24 16:58 58.97001 -1.54710 18261 ft 229 kts 192°
2026-04-24 16:58 58.95399 -1.55029 18278 ft 234 kts 192°
2026-04-24 16:58 58.93766 -1.55364 18284 ft 238 kts 192°
2026-04-24 16:59 58.92105 -1.55704 18284 ft 242 kts 192°
2026-04-24 16:59 58.90423 -1.56064 18287 ft 245 kts 192°
2026-04-24 16:59 58.86997 -1.56762 18285 ft 250 kts 191°
2026-04-24 17:00 58.85282 -1.57080 18286 ft 252 kts 191°
2026-04-24 17:00 58.81781 -1.57773 18292 ft 254 kts 191°
2026-04-24 17:00 58.80016 -1.58110 18290 ft 255 kts 191°
2026-04-24 17:01 58.76467 -1.58774 18289 ft 257 kts 191°
2026-04-24 17:01 58.74684 -1.59120 18287 ft 257 kts 191°
2026-04-24 17:02 58.71114 -1.59820 18286 ft 258 kts 191°
2026-04-24 17:02 58.69325 -1.60172 18289 ft 258 kts 191°
2026-04-24 17:02 58.67535 -1.60519 18287 ft 259 kts 191°
2026-04-24 17:02 58.65744 -1.60873 18289 ft 259 kts 191°
2026-04-24 17:03 58.62156 -1.61571 18291 ft 259 kts 191°
2026-04-24 17:03 58.60363 -1.61920 18290 ft 259 kts 191°
2026-04-24 17:03 58.58567 -1.62268 18290 ft 260 kts 190°
2026-04-24 17:04 58.56769 -1.62619 18296 ft 260 kts 190°
2026-04-24 17:04 58.53168 -1.63315 18293 ft 260 kts 190°
2026-04-24 17:04 58.51365 -1.63665 18290 ft 260 kts 190°
2026-04-24 17:05 58.49563 -1.64014 18292 ft 261 kts 190°
2026-04-24 17:05 58.47758 -1.64363 18289 ft 261 kts 190°
2026-04-24 17:05 58.44146 -1.65061 18292 ft 261 kts 190°
2026-04-24 17:06 58.42343 -1.65409 18289 ft 261 kts 190°
2026-04-24 17:06 58.38727 -1.66106 18288 ft 261 kts 190°
2026-04-24 17:06 58.36916 -1.66455 18289 ft 261 kts 190°
2026-04-24 17:07 58.35719 -1.66687 18293 ft 261 kts 190°
2026-04-24 17:07 58.33299 -1.67150 18291 ft 261 kts 190°
2026-04-24 17:07 58.29676 -1.67846 18290 ft 262 kts 190°
2026-04-24 17:08 58.26078 -1.68535 18292 ft 262 kts 190°
2026-04-24 17:08 58.24266 -1.68880 18291 ft 262 kts 190°
2026-04-24 17:08 58.22451 -1.69226 18294 ft 262 kts 190°
2026-04-24 17:09 58.18823 -1.69917 18289 ft 262 kts 190°
2026-04-24 17:09 58.15194 -1.70606 18290 ft 262 kts 190°
2026-04-24 17:10 58.13376 -1.70952 18292 ft 262 kts 190°
2026-04-24 17:10 58.07926 -1.71982 18289 ft 263 kts 189°
2026-04-24 17:11 58.02470 -1.73013 18288 ft 263 kts 190°
2026-04-24 17:12 57.93365 -1.74725 18289 ft 263 kts 189°